This is the latest recevied weather packets stored in our database for station/object YD2UMH-10. If no packets are shown the sender has not sent any weather packets the latest 10 day(s).
| Time | Temp. | Humidity | Pressure | Rain* | Wind** | Luminosity | Snow |
|---|---|---|---|---|---|---|---|
| 1778130922 | 37.78° C | 74% | 989 hPa | - | - | 0 W/m² | - |
| 1778130600 | 37.22° C | 73% | 989 hPa | - | - | 0 W/m² | - |
| 1778130278 | 39.44° C | 77% | 989 hPa | - | - | 0 W/m² | - |
| 1778129956 | 36.67° C | 79% | 989 hPa | - | - | 0 W/m² | - |
| 1778129633 | 36.67° C | 76% | 990 hPa | - | - | 0 W/m² | - |
| 1778129311 | 37.78° C | 72% | 990 hPa | - | - | 0 W/m² | - |
| 1778128989 | 37.78° C | 72% | 990 hPa | - | - | 0 W/m² | - |
| 1778128667 | 37.78° C | 85% | 990 hPa | - | - | 0 W/m² | - |
| 1778128345 | 37.22° C | 85% | 990 hPa | - | - | 0 W/m² | - |
| 1778128023 | 37.78° C | 86% | 990 hPa | - | - | 0 W/m² | - |
| 1778127701 | 38.33° C | 90% | 990 hPa | - | - | 0 W/m² | - |
| 1778127379 | 35.56° C | 99% | 990 hPa | - | - | 0 W/m² | - |
| 1778127057 | 35.56° C | 99% | 990 hPa | - | - | 0 W/m² | - |
| 1778126735 | 36.67° C | 99% | 990 hPa | - | - | 0 W/m² | - |
| 1778126413 | 36.67° C | 99% | 991 hPa | - | - | 0 W/m² | - |
| 1778126091 | 36.67° C | 99% | 991 hPa | - | - | 0 W/m² | - |
| 1778125769 | 37.78° C | 99% | 991 hPa | - | - | 0 W/m² | - |
| 1778125447 | 35° C | 99% | 991 hPa | - | - | 0 W/m² | - |
| 1778125125 | 36.11° C | 99% | 991 hPa | - | - | 0 W/m² | - |
| 1778124803 | 36.11° C | 99% | 991 hPa | - | - | 0 W/m² | - |
| 1778124480 | 35.56° C | 99% | 991 hPa | - | - | 0 W/m² | - |
| 1778124158 | 35.56° C | 99% | 991 hPa | - | - | 0 W/m² | - |
| 1778123836 | 36.11° C | 99% | 991 hPa | - | - | 0 W/m² | - |
| 1778123514 | 35° C | 99% | 991 hPa | - | - | 0 W/m² | - |
| 1778123192 | 35° C | 99% | 991 hPa | - | - | 0 W/m² | - |
* Rain since midnight (hover to see other rain measurements)
** Current wind speed in m/s (hover to see current wind gust speed)